GFSSGP_con_sbcape_147.txt.gz
CAPE
0 0 0 0 0 0 0 0 0 0 0 0 0 0 458 570 916 760 778 853 1745 1713 1822 1882 2290 2102 1567 1549 1556 1281 1069 695 425 412 905 1109 1224 1215 1081 1014 1140 1040 899 1012 868 674 710 500 259
0 0 0 0 0 0 0 0 0 0 0 0 0 0 302 676 922 889 761 830 1915 1898 1884 1633 2535 2272 2144 1657 1371 1057 757 439 326 386 673 1175 1221 1124 1073 996 1072 1062 917 977 725 598 518 242 454
0 0 0 0 0 0 0 0 0 0 0 0 0 0 783 781 952 991 925 761 1911 2072 1788 1851 2678 2396 2164 2020 1481 986 813 773 476 302 592 904 1055 1178 1054 1163 1095 905 955 910 576 448 300 406 779
0 0 0 0 0 0 0 0 0 0 0 0 0 171 443 569 988 1007 924 480 1741 1966 1904 2593 2886 2648 2517 2254 1296 1273 1439 1098 689 501 453 757 1046 1128 1100 1027 1062 1038 988 686 445 335 464 720 524
0 0 0 0 0 0 0 0 0 0 0 0 0 38 279 678 1037 1095 1050 399 1743 1994 2063 2588 3220 2942 2789 2678 2099 1770 1988 1582 977 667 606 624 964 1179 1066 1001 1105 1094 947 581 282 557 428 623 511
0 0 0 0 0 0 0 0 0 0 0 0 0 0 265 348 667 1095 1113 999 1103 2071 2413 2496 3265 3169 2933 2739 2435 2295 2170 1963 1547 1435 1191 1036 942 1184 1076 1077 999 1031 855 835 867 643 289 183 282
0 0 0 0 0 0 0 0 0 0 0 0 0 0 17 162 296 702 1026 1102 1198 1797 2084 2173 2373 2519 2507 2770 2175 2263 2050 1873 1863 1744 1456 1290 1392 1210 1024 1132 968 1029 947 801 564 313 174 310 285
0 0 0 0 0 0 0 0 0 0 0 0 0 0 0 0 190 695 927 990 900 1328 1965 1729 1936 2061 2166 2071 2168 1821 2223 1710 1596 1574 1616 1766 1585 1247 997 947 985 1010 847 712 506 353 253 244 222
0 0 0 0 0 0 0 0 0 0 0 0 0 0 0 0 0 97 838 826 665 758 968 1520 1628 1522 1499 1553 1479 1730 1920 1575 1238 1094 1193 868 641 623 607 735 961 814 824 656 409 334 182 168 148
0 0 0 0 0 0 0 0 0 0 0 0 0 0 0 0 0 0 2 945 700 466 586 945 1320 1469 1237 1619 1009 1072 652 614 552 313 9 0 0 0 210 541 960 839 840 665 362 397 119 9 0
0 0 0 0 0 0 0 0 0 0 0 0 0 0 0 0 0 0 0 42 437 598 593 708 995 982 1122 1113 558 223 320 247 317 43 1 0 0 0 0 5 192 397 516 351 168 73 10 0 10
0 0 0 0 0 0 0 0 0 0 0 0 0 0 0 0 0 0 0 0 0 0 400 908 917 856 1023 950 577 500 419 276 184 73 10 0 0 0 0 0 0 52 41 124 2 10 54 30 11
0 0 0 0 0 0 0 0 0 0 0 0 0 0 0 0 0 0 0 0 0 0 0 1016 1170 1018 1137 1068 603 531 592 341 369 175 31 0 0 0 11 1 0 4 17 12 0 0 0 8 3
0 0 0 0 0 0 0 0 0 0 0 0 0 0 0 0 0 0 0 0 0 0 0 0 702 1151 1223 1313 821 750 678 409 282 189 0 0 0 0 0 0 1 0 39 0 0 0 0 0 0
0 0 0 0 0 0 0 0 0 0 0 0 0 0 0 0 0 0 0 0 0 0 0 0 0 311 1306 1202 1156 840 889 529 460 150 1 0 0 0 0 0 1 2 24 0 0 0 0 0 0
0 0 0 0 0 0 0 0 0 0 0 0 0 0 0 0 0 0 0 0 0 0 0 0 0 0 0 1015 1208 1330 985 586 618 379 146 43 0 0 0 0 0 59 3 0 0 0 0 0 0
0 0 0 0 0 0 0 0 0 0 0 0 0 0 0 0 0 0 0 0 0 0 0 0 0 0 6 108 1499 1231 1379 1100 895 650 323 121 24 0 2 18 51 124 19 0 0 0 0 0 0
0 0 0 0 0 0 0 0 0 0 0 0 0 0 0 0 0 0 0 0 0 0 0 0 0 0 64 73 1283 1116 1282 1234 1159 788 420 73 42 7 8 88 140 100 1 0 0 0 0 0 0
0 0 0 0 0 0 0 0 0 0 0 0 0 0 0 0 0 0 0 0 0 0 0 0 0 0 85 158 1140 1078 1230 1156 955 948 760 186 62 58 90 47 106 5 0 0 0 0 0 0 0
0 0 0 0 0 0 0 0 0 0 0 0 0 0 0 0 0 0 0 0 0 0 0 0 0 0 0 204 771 787 879 894 828 792 794 632 318 143 197 56 34 0 0 0 0 0 0 0 0
0 0 0 0 0 0 0 0 0 0 0 0 0 0 0 0 0 0 0 0 3 2 2 20 0 0 0 379 600 601 584 660 636 547 416 400 447 241 174 63 2 0 0 0 0 0 0 0 0
0 0 0 0 0 0 0 0 0 0 0 0 0 0 0 0 0 0 1 10 7 7 28 167 123 0 0 370 556 615 734 487 286 395 302 93 150 239 174 32 0 0 0 0 0 0 0 0 0
0 0 0 0 0 0 0 0 0 0 0 0 0 0 0 0 0 0 7 9 10 10 7 8 91 168 289 350 463 366 217 20 14 52 47 0 0 0 0 0 0 0 0 0 0 0 0 0 0
0 0 0 0 0 0 0 0 0 0 0 0 0 0 0 0 0 0 16 8 4 4 1 0 0 0 200 381 328 108 0 0 0 2 1 1 0 0 0 0 0 0 0 0 0 0 0 0 0
0 0 0 0 0 0 0 0 0 0 0 0 0 0 0 0 0 9 21 4 0 1 2 0 0 0 1 213 13 0 0 0 1 1 1 0 0 0 0 0 0 0 0 0 0 0 0 0 0
0 0 0 0 0 0 0 0 0 0 0 0 0 0 0 0 0 6 6 4 0 0 1 1 1 2 0 0 0 0 0 0 1 0 1 1 0 0 0 1 0 0 0 0 4 0 2 0 0
0 0 0 0 0 0 0 0 0 0 0 0 0 0 0 0 0 8 7 5 0 1 2 1 1 1 1 1 0 0 0 1 1 1 1 1 1 0 0 0 0 0 0 0 0 1 0 4 0
0 0 0 0 0 0 0 0 0 0 0 0 0 0 0 0 0 10 4 3 1 0 2 0 1 2 2 1 1 1 1 1 1 1 1 0 5 1 0 0 0 0 0 0 0 0 0 0 0
0 0 0 0 0 0 0 0 0 0 0 0 0 0 0 0 0 7 4 1 0 0 0 1 1 1 2 2 1 1 1 0 1 1 1 1 0 0 0 0 0 0 0 0 0 0 0 0 0
0 0 0 0 0 0 0 0 0 0 0 0 0 0 0 0 0 3 1 1 2 0 1 0 0 1 1 1 1 3 1 1 1 1 1 1 1 1 0 0 0 0 0 0 0 0 0 0 0

GFSSGP_con_sbcape_150.txt.gz
CAPE
0 0 0 0 0 0 0 0 0 0 0 0 0 245 640 523 776 428 599 700 1523 1474 1696 1881 2500 2197 1526 1455 1578 1355 1000 720 429 757 814 1135 1263 1222 1225 1206 1164 1062 867 995 961 647 400 505 534
0 0 0 0 0 0 0 0 0 0 0 0 0 23 343 590 848 797 693 1516 1623 1677 1715 1587 2582 2496 2309 1835 1719 1483 1118 723 498 747 1047 1210 1218 1170 918 986 1166 1026 802 921 782 772 509 821 452
0 0 0 0 0 0 0 0 0 0 0 0 0 105 489 551 676 649 623 1792 1721 1755 1703 1613 2749 2588 2472 2162 1615 1402 770 566 609 616 1069 1231 1268 1217 1224 1083 1082 1184 983 736 671 610 815 891 606
0 0 0 0 0 0 0 0 0 0 0 0 0 369 264 394 833 656 601 1826 1827 1756 1569 2344 2825 2566 2481 1875 1398 1031 1048 803 619 697 859 1215 1289 1197 1131 1076 1181 1195 928 627 472 607 824 724 459
0 0 0 0 0 0 0 0 0 0 0 0 0 61 218 633 723 613 274 1920 1867 1691 1619 2398 2957 2518 2363 2032 1362 1474 1656 1146 838 848 826 1231 1317 1273 1132 1165 1175 1134 802 474 584 614 658 351 288
0 0 0 0 0 0 0 0 0 0 0 0 0 51 162 36 317 565 920 1110 1964 1855 1863 2355 2671 2583 2609 2336 1859 1960 1896 1498 1106 1059 1152 1109 1477 1318 1269 1172 1095 1034 689 656 561 495 328 202 116
0 0 0 0 0 0 0 0 0 0 0 0 0 29 32 32 98 538 705 878 1375 2048 2191 2114 1982 1913 2252 2337 2612 2068 1710 1602 1533 1239 1233 1230 1693 1425 1382 1262 1066 990 720 723 417 444 208 177 61
0 0 0 0 0 0 0 0 0 0 0 0 0 0 0 0 170 760 333 667 1094 1431 1871 1881 1719 1706 1605 1744 1966 1739 1843 1584 1425 1491 1581 1806 1542 1493 1282 1319 1188 1034 936 632 266 205 407 103 21
0 0 0 0 0 0 0 0 0 0 0 0 0 0 0 0 5 330 563 367 646 884 1216 1418 1492 1537 1399 1247 1471 1925 1861 1698 1361 1087 1064 826 234 434 881 898 1242 1221 978 606 231 285 269 132 28
0 0 0 0 0 0 0 0 0 0 0 0 0 0 0 0 0 0 25 495 255 407 767 1227 1274 1354 1220 1460 1187 1078 1011 1000 425 12 0 0 0 7 56 534 1010 1238 1007 772 316 181 201 0 0
0 0 0 0 0 0 0 0 0 0 0 0 0 0 0 0 0 0 0 59 480 229 368 666 1085 1146 1059 872 191 210 254 316 76 0 0 0 0 0 0 0 4 20 722 238 82 46 0 0 0
0 0 0 0 0 0 0 0 0 0 0 0 0 0 0 0 0 0 0 0 0 80 101 307 607 726 811 577 181 222 258 249 172 16 0 0 0 0 0 0 0 1 1 76 82 22 3 0 0
0 0 0 0 0 0 0 0 0 0 0 0 0 0 0 0 0 0 0 0 0 0 0 299 445 433 651 548 294 287 287 321 231 57 21 0 0 0 0 0 0 0 1 3 19 37 0 0 0
0 0 0 0 0 0 0 0 0 0 0 0 0 0 0 0 0 0 0 0 0 0 0 0 568 417 589 525 424 406 574 327 327 216 83 2 0 0 0 4 5 1 4 28 0 0 0 0 0
0 0 0 0 0 0 0 0 0 0 0 0 0 0 0 0 0 0 0 0 0 0 0 0 6 533 655 694 610 680 653 690 675 416 167 63 10 0 0 0 13 26 43 0 0 0 0 0 0
0 0 0 0 0 0 0 0 0 0 0 0 0 0 0 0 0 0 0 0 0 0 0 0 0 4 457 551 793 908 854 550 628 501 236 145 0 0 0 0 0 10 0 2 0 0 0 0 0
0 0 0 0 0 0 0 0 0 0 0 0 0 0 0 0 0 0 0 0 0 0 0 0 0 0 0 4 738 978 962 711 726 490 157 23 0 0 0 0 4 2 0 2 0 0 0 0 0
0 0 0 0 0 0 0 0 0 0 0 0 0 0 0 0 0 0 0 0 0 0 0 0 0 0 0 0 504 814 1363 1083 922 573 190 188 27 0 0 0 62 8 8 1 0 0 0 0 0
0 0 0 0 0 0 0 0 0 0 0 0 0 0 0 0 0 0 0 0 0 0 0 0 0 0 0 0 166 798 1241 1209 1170 810 494 306 190 0 3 7 111 31 6 0 0 0 0 0 0
0 0 0 0 0 0 0 0 0 0 0 0 0 0 0 0 0 0 0 0 0 0 0 0 0 0 0 0 242 697 846 854 727 819 742 420 96 75 1 7 127 20 0 0 0 0 0 0 0
0 0 0 0 0 0 0 0 0 0 0 0 0 0 0 0 0 0 0 0 0 0 0 0 0 0 0 0 95 277 481 556 686 606 585 619 290 117 167 5 109 22 0 0 0 0 0 0 0
0 0 0 0 0 0 0 0 0 0 0 0 0 0 0 0 0 0 0 0 0 0 1 0 0 3 0 0 87 334 479 562 413 286 318 198 306 343 297 128 89 34 0 0 0 0 0 0 0
0 0 0 0 0 0 0 0 0 0 0 0 0 0 0 0 0 0 0 0 1 11 6 3 0 0 0 1 36 56 85 13 0 18 169 29 0 237 378 233 32 18 0 0 0 0 0 0 0
0 0 0 0 0 0 0 0 0 0 0 0 0 0 0 0 0 0 0 0 0 3 1 0 0 0 33 0 0 0 0 0 0 0 37 0 0 0 13 109 7 0 0 0 0 0 0 0 0
0 0 0 0 0 0 0 0 0 0 0 0 0 0 0 0 0 0 0 0 1 1 0 0 0 1 1 0 0 0 0 0 0 0 0 0 0 0 0 0 0 0 0 0 0 0 0 0 0
0 0 0 0 0 0 0 0 0 0 0 0 0 0 0 0 0 0 0 4 2 0 0 0 0 0 0 0 1 0 0 0 0 0 1 0 0 0 0 0 1 0 0 0 0 0 0 0 0
0 0 0 0 0 0 0 0 0 0 0 0 0 0 0 0 0 0 2 3 0 1 0 0 1 1 0 1 1 0 0 0 0 0 0 0 0 0 0 0 0 0 0 0 0 3 0 2 0
0 0 0 0 0 0 0 0 0 0 0 0 0 0 0 0 0 0 2 1 2 2 0 0 0 2 2 1 0 0 0 0 0 1 0 1 1 0 0 0 0 0 0 0 0 0 0 0 0
0 0 0 0 0 0 0 0 0 0 0 0 0 0 0 0 0 1 1 2 2 1 1 0 0 1 2 1 0 1 1 1 0 1 1 1 2 1 0 0 0 0 0 0 0 0 0 0 0
0 0 0 0 0 0 0 0 0 0 0 0 0 0 0 0 0 0 0 0 1 2 1 1 1 1 0 1 1 1 0 0 0 1 1 0 0 0 0 0 0 0 0 0 0 0 0 0 0

GFSSGP_con_sbcape_153.txt.gz
CAPE
0 0 0 0 0 0 0 0 0 0 0 0 0 238 529 470 599 92 323 964 1190 1293 1533 1837 2466 2048 1547 1186 1540 1209 893 545 541 1042 1130 1092 1250 1230 1310 1258 1147 948 1107 967 732 818 899 738 579
0 0 0 0 0 0 0 0 0 0 0 0 12 13 257 623 759 676 592 821 1373 1496 1571 1607 2269 2446 2042 1705 1766 1403 1084 694 723 1215 855 1385 1255 1284 1357 1278 1044 811 1088 888 578 823 694 671 497
0 0 0 0 0 0 0 0 0 0 0 0 0 92 259 504 639 568 376 1528 1483 1637 1587 1591 2706 2628 2386 2073 2006 1608 1241 809 748 1094 1220 1404 1364 1267 1115 963 996 1005 875 746 564 947 648 599 398
0 0 0 0 0 0 0 0 0 0 0 0 8 244 173 305 646 466 1153 1653 1564 1598 1456 2019 2853 2360 2316 2144 1865 1632 966 695 747 1056 1373 1537 1524 1436 1132 1063 1256 1084 973 671 583 628 589 477 240
0 0 0 0 0 0 0 0 0 0 0 0 0 77 344 349 430 313 1482 1702 1553 1508 1364 2113 2813 2308 2139 2037 1669 1165 1045 917 773 1013 1372 1544 1545 1420 1476 1258 1358 1116 881 660 672 695 521 277 179
0 0 0 0 0 0 0 0 0 0 0 0 0 11 283 1 395 608 1570 1733 1708 1616 1548 2239 2942 2814 2512 2003 1584 1393 1660 1193 995 1021 1204 1506 1577 1448 1438 1512 1256 1034 802 621 572 559 402 198 164
0 0 0 0 0 0 0 0 0 0 0 0 0 40 32 0 68 541 669 1393 1773 1755 1854 2257 1936 1856 2431 2261 2069 2315 1902 1537 1239 1053 1096 1573 1699 1510 1398 1323 1293 1030 860 501 416 550 372 200 52
0 0 0 0 0 0 0 0 0 0 0 0 0 0 44 0 224 252 261 815 1277 1981 1957 1670 1613 1522 1448 1445 2140 2009 1667 1435 1525 1611 1578 1655 1764 1839 1426 1392 1226 1023 820 547 491 429 271 61 0
0 0 0 0 0 0 0 0 0 0 0 0 0 0 0 0 18 145 139 264 612 1055 1501 1529 1526 1416 1260 1220 1370 1786 1747 1648 1413 1362 1425 918 335 811 1094 1167 1396 1130 713 576 528 425 221 81 14
0 0 0 0 0 0 0 0 0 0 0 0 0 0 0 0 0 0 37 197 226 591 926 1213 1359 1483 1236 1294 1097 1119 1016 834 556 161 1 0 32 308 379 846 1119 1179 756 673 547 366 38 0 0
0 0 0 0 0 0 0 0 0 0 0 0 0 0 0 0 0 0 0 31 52 137 392 723 924 1023 988 927 576 386 428 116 8 0 0 0 0 24 46 52 77 32 449 64 150 51 0 0 0
0 0 0 0 0 0 0 0 0 0 0 0 0 0 0 0 0 0 0 0 58 86 104 390 667 861 848 290 135 79 59 68 4 0 0 0 0 0 2 2 3 54 11 0 0 0 0 0 0
0 0 0 0 0 0 0 0 0 0 0 0 0 0 0 0 0 0 0 0 0 0 0 44 253 375 492 216 43 111 140 151 100 22 1 0 0 0 0 0 0 21 49 0 0 0 0 0 0
0 0 0 0 0 0 0 0 0 0 0 0 0 0 0 0 0 0 0 0 0 0 0 0 90 78 202 187 278 151 187 251 123 90 1 10 9 0 0 0 14 2 50 18 0 0 0 0 0
0 0 0 0 0 0 0 0 0 0 0 0 0 0 0 0 0 0 0 0 0 0 0 0 1 76 231 264 345 225 406 412 331 318 142 107 8 0 0 0 1 4 45 0 0 0 0 0 0
0 0 0 0 0 0 0 0 0 0 0 0 0 0 0 0 0 0 0 0 0 0 0 0 0 0 112 223 233 333 327 487 556 516 353 197 98 14 1 1 4 80 3 0 0 0 0 0 0
0 0 0 0 0 0 0 0 0 0 0 0 0 0 0 0 0 0 0 0 0 0 0 0 0 0 6 111 210 236 421 439 591 630 532 225 33 0 0 2 24 16 0 1 1 0 0 0 0
0 0 0 0 0 0 0 0 0 0 0 0 0 0 0 0 0 0 0 0 0 0 0 0 0 0 0 0 18 17 159 287 455 545 434 194 19 0 0 0 70 0 0 1 1 0 0 0 0
0 0 0 0 0 0 0 0 0 0 0 0 0 0 0 0 0 0 0 0 0 0 0 0 0 0 0 0 0 2 239 374 429 603 458 232 36 6 0 3 75 0 2 11 0 0 0 0 0
0 0 0 0 0 0 0 0 0 0 0 0 0 0 0 0 0 0 0 0 0 0 0 0 0 0 0 0 0 7 84 266 492 678 572 445 180 2 3 9 133 9 0 1 1 0 0 0 1
0 0 0 0 0 0 0 0 0 0 0 0 0 0 0 0 0 0 0 0 0 0 0 0 0 0 0 0 0 0 12 115 263 297 453 384 236 21 0 18 188 16 1 2 0 0 0 0 0
0 0 0 0 0 0 0 0 0 0 0 0 0 0 0 0 0 0 0 0 0 0 0 0 0 0 0 0 0 0 0 68 140 67 155 181 126 39 43 23 208 25 0 0 0 0 0 0 0
0 0 0 0 0 0 0 0 0 0 0 0 0 0 0 0 0 0 0 0 0 0 0 0 0 0 0 0 0 0 0 0 1 13 30 74 0 201 174 95 81 63 0 0 0 1 0 0 0
0 0 0 0 0 0 0 0 0 0 0 0 0 0 0 0 0 0 0 0 0 0 0 0 0 0 0 0 0 0 0 0 0 0 16 28 0 0 105 281 147 65 2 0 1 0 0 0 0
0 0 0 0 0 0 0 0 0 0 0 0 0 0 0 0 0 0 0 0 0 0 0 0 0 0 0 0 0 0 0 0 0 0 1 0 0 0 1 46 107 7 0 0 0 0 0 0 0
0 0 0 0 0 0 0 0 0 0 0 0 0 0 0 0 0 0 0 0 0 0 0 0 0 1 0 0 0 0 0 0 0 0 0 0 0 0 0 2 0 0 0 0 0 0 0 0 0
0 0 0 0 0 0 0 0 0 0 0 0 0 0 0 0 0 0 0 0 0 0 0 0 0 1 1 1 0 0 0 0 0 0 0 0 0 0 0 0 0 0 0 0 0 0 0 0 0
0 0 0 0 0 0 0 0 0 0 0 0 0 0 0 0 0 0 0 0 0 0 0 0 1 1 1 1 0 0 0 0 0 0 0 0 0 0 0 0 0 0 0 0 0 0 0 0 0
0 0 0 0 0 0 0 0 0 0 0 0 0 0 0 0 0 0 0 0 2 1 0 0 1 1 1 0 0 0 0 0 0 1 1 1 1 0 0 0 0 0 0 0 0 0 0 0 0
0 0 0 0 0 0 0 0 0 0 0 0 0 0 0 0 0 0 0 1 2 0 0 1 0 0 0 0 0 0 0 0 0 1 1 1 1 1 1 0 0 0 0 0 0 0 0 0 0

GFSSGP_con_sbcape_156.txt.gz
CAPE
0 0 0 0 0 0 0 0 0 0 0 0 0 78 304 474 365 21 83 823 993 1070 1395 1542 2505 1940 1372 1122 1559 1093 770 452 697 926 793 1091 1272 1274 1450 1315 1081 912 899 956 1051 1023 871 654 493
0 0 0 0 0 0 0 0 0 0 0 35 0 54 218 606 695 541 698 926 1186 1313 1427 1541 2305 2461 2003 1491 1594 1300 985 469 1088 840 1065 1046 1331 1424 1459 1280 947 990 983 1033 1041 943 748 509 287
0 0 0 0 0 0 0 0 0 0 0 0 233 61 264 642 592 454 300 903 1311 1470 1460 1646 2684 2635 2289 2207 1832 1520 1206 650 1240 994 949 1352 1319 1382 1371 1123 767 1001 944 933 970 954 717 556 331
0 0 0 0 0 0 0 0 0 0 0 0 1 254 283 291 572 409 1006 1378 1434 1428 1393 1802 2777 2441 2450 2345 2197 1720 1345 850 963 1117 1412 1498 1550 1354 1156 1079 1216 1138 904 910 921 815 636 504 250
0 0 0 0 0 0 0 0 0 0 0 0 0 109 540 308 441 187 1527 1473 1428 1375 1258 1848 2641 2317 2379 2347 2112 1747 1077 792 830 1140 1460 1566 1622 1409 1305 1176 1164 1282 954 943 897 714 387 440 114
0 0 0 0 0 0 0 0 0 0 0 0 0 179 434 2 540 630 1562 1451 1487 1448 1351 1930 2492 2625 2586 2359 1923 1446 1103 1045 888 1107 1516 1576 1515 1409 1301 1442 1255 1194 1018 1044 886 564 452 245 47
0 0 0 0 0 0 0 0 0 0 0 0 0 7 33 0 265 662 1461 1451 1555 1543 1540 2013 1841 1774 2389 2595 2280 1743 1725 1364 1175 1201 1218 1650 1613 1555 1503 1412 1284 1116 1045 1060 762 546 402 72 14
0 0 0 0 0 0 0 0 0 0 0 0 0 0 40 2 322 253 594 1290 1562 1708 1756 1664 1526 1600 1630 1713 2379 2389 1901 1689 1410 1747 1638 1726 1726 1655 1482 1419 1212 1148 991 909 824 497 203 15 1
0 0 0 0 0 0 0 0 0 0 0 0 0 0 0 9 227 89 261 401 930 1375 1655 1500 1509 1384 1245 1236 1464 2081 1897 1825 1598 1569 1782 1408 787 1060 1199 1140 1369 1020 938 941 620 460 118 4 1
0 0 0 0 0 0 0 0 0 0 0 0 0 0 0 9 84 106 89 220 419 919 1260 1247 1244 1054 891 1203 1124 1179 1031 922 712 619 349 93 284 525 682 1009 1183 1006 872 830 576 393 94 0 0
0 0 0 0 0 0 0 0 0 0 0 0 0 0 0 0 0 1 0 1 102 278 456 889 1039 1003 1025 1065 606 408 118 213 76 22 0 1 31 186 103 209 150 242 572 321 249 80 0 0 0
0 0 0 0 0 0 0 0 0 0 0 0 0 0 0 0 0 0 0 0 7 29 218 386 627 772 778 477 219 3 1 1 0 0 0 0 1 0 0 16 16 43 16 54 0 0 0 0 0
0 0 0 0 0 0 0 0 0 0 0 0 0 0 0 0 0 0 0 0 0 0 0 193 310 458 476 171 19 9 42 71 22 0 0 0 0 0 0 0 0 0 0 13 0 0 0 0 0
0 0 0 0 0 0 0 0 0 0 0 0 0 0 0 0 0 0 0 0 0 0 0 0 46 97 159 83 46 49 73 148 88 31 2 0 0 0 0 0 0 2 8 0 0 0 0 0 0
0 0 0 0 0 0 0 0 0 0 0 0 0 0 0 0 0 0 0 0 0 0 0 0 0 1 30 87 112 137 82 184 195 139 17 0 0 0 0 0 0 4 11 1 0 0 0 0 0
0 0 0 0 0 0 0 0 0 0 0 0 0 0 0 0 0 0 0 0 0 0 0 0 0 0 20 74 95 96 148 195 272 285 112 79 14 0 0 0 0 22 12 1 0 0 0 0 0
0 0 0 0 0 0 0 0 0 0 0 0 0 0 0 0 0 0 0 0 0 0 0 0 0 0 5 25 51 29 44 211 257 309 351 348 128 2 0 0 5 72 3 1 2 1 0 0 0
0 0 0 0 0 0 0 0 0 0 0 0 0 0 0 0 0 0 0 0 0 0 0 0 0 0 0 0 15 0 10 95 88 375 453 331 266 30 2 4 64 60 0 2 1 1 3 1 0
0 0 0 0 0 0 0 0 0 0 0 0 0 0 0 0 0 0 0 0 0 0 0 0 0 0 0 0 0 1 0 13 40 156 386 480 268 91 33 10 61 15 16 1 0 1 2 4 0
0 0 0 0 0 0 0 0 0 0 0 0 0 0 0 0 0 0 0 0 0 0 0 0 0 0 0 0 0 0 0 2 19 97 169 297 231 126 27 1 101 34 1 1 0 0 2 2 0
0 0 0 0 0 0 0 0 0 0 0 0 0 0 0 0 0 0 0 0 0 0 0 0 0 0 0 0 0 0 0 0 2 46 110 137 76 149 70 31 73 79 0 5 0 0 0 1 0
0 0 0 0 0 0 0 0 0 0 0 0 0 0 0 0 0 0 0 0 0 0 0 0 0 0 0 0 0 0 0 0 0 5 95 160 100 37 21 25 60 80 7 4 0 0 0 0 0
0 0 0 0 0 0 0 0 0 0 0 0 0 0 0 0 0 0 0 0 0 0 0 0 0 0 0 0 0 0 0 0 0 0 15 39 58 93 30 8 40 79 9 6 0 1 0 0 1
0 0 0 0 0 0 0 0 0 0 0 0 0 0 0 0 0 0 0 0 0 0 0 0 0 0 0 0 0 0 0 0 0 0 1 2 3 37 99 45 41 122 15 13 2 2 2 4 0
0 0 0 0 0 0 0 0 0 0 0 0 0 0 0 0 0 0 0 0 0 0 0 0 0 1 0 0 0 0 0 0 0 0 0 0 0 0 0 113 106 100 28 20 6 4 1 1 0
0 0 0 0 0 0 0 0 0 0 0 0 0 0 0 0 0 0 0 0 0 0 0 0 0 0 1 0 0 0 0 0 0 0 0 0 0 0 0 0 34 144 61 2 22 4 4 0 0
0 0 0 0 0 0 0 0 0 0 0 0 0 0 0 0 0 0 0 0 0 0 0 0 0 1 1 1 0 0 0 0 0 0 0 0 0 0 0 0 4 0 0 0 24 1 3 0 0
0 0 0 0 0 0 0 0 0 0 0 0 0 0 0 0 0 0 0 0 0 0 0 0 0 1 1 0 0 0 1 0 0 0 0 0 0 0 0 0 2 0 0 0 0 1 0 0 0
0 0 0 0 0 0 0 0 0 0 0 0 0 0 0 0 0 0 0 0 0 0 0 0 0 0 1 0 0 0 0 0 0 1 1 1 0 0 0 0 3 0 0 0 0 0 0 0 0
0 0 0 0 0 0 0 0 0 0 0 0 0 0 0 0 0 0 0 0 0 0 1 1 0 0 0 0 0 0 0 0 0 1 1 1 1 0 0 0 0 1 0 0 0 0 0 0 0

GFSSGP_con_sbcape_159.txt.gz
CAPE
0 0 0 0 0 0 0 0 0 0 0 0 0 124 196 576 226 228 350 1103 1113 1162 1271 1116 2107 2062 1366 1643 1294 1013 693 431 555 780 946 1158 1321 1459 1419 1169 985 1032 1116 1233 1067 960 715 478 325
0 0 0 0 0 0 0 0 0 0 0 127 44 206 261 806 830 823 858 1205 1333 1264 1303 1001 2321 2570 1984 1492 1566 1197 738 502 865 1034 846 1162 1367 1482 1387 1111 922 1070 1164 1313 1120 781 559 507 283
0 0 0 0 0 0 0 0 0 0 33 0 297 152 500 904 779 950 643 1262 1438 1459 1334 1116 2820 2714 2284 2190 1675 1383 1030 496 1356 780 1236 1060 1445 1450 1319 1104 1038 1165 1302 1233 1140 944 605 508 267
0 0 0 0 0 0 0 0 0 0 0 0 83 550 522 368 820 700 1018 1470 1611 1676 1516 1653 2813 2870 2451 2395 2110 1637 1280 710 1315 972 1021 1480 1440 1459 1287 1099 1118 1256 1270 1192 1109 881 635 307 181
0 0 0 0 0 0 0 0 0 0 0 0 0 289 801 539 634 459 1590 1540 1699 1803 1654 1370 2593 2491 2520 2642 2210 1856 1452 928 1075 1153 1616 1520 1400 1394 1235 1171 1421 1210 1276 1243 1008 782 525 172 76
0 0 0 0 0 0 0 0 0 0 0 0 7 419 800 32 693 697 1693 1719 1712 1890 1729 1522 2494 2581 2572 2465 2277 1874 1277 933 969 1207 1579 1451 1446 1422 1300 1308 1496 1275 1254 1227 944 665 528 216 45
0 0 0 0 0 0 0 0 0 0 0 0 25 458 114 50 760 1343 1751 1725 1861 1921 1878 2003 2201 2004 2505 2539 2399 1901 1163 1201 1034 1213 1563 1568 1481 1358 1505 1365 1489 1375 1435 1257 987 757 456 84 30
0 0 0 0 0 0 0 0 0 0 0 0 0 7 108 154 793 1127 1717 1865 1991 2080 2082 2123 2298 2078 2054 2148 2525 2312 2130 2005 1804 1805 1717 1932 1964 1615 1545 1476 1442 1425 1345 1039 873 691 323 148 0
0 0 0 0 0 0 0 0 0 0 0 0 0 0 0 89 587 916 1309 1597 1946 2072 2151 2121 2190 2035 1910 1797 2153 2454 2341 1713 1731 1926 1799 1656 1694 1567 1432 1381 1667 1367 1249 996 836 632 233 46 1
0 0 0 0 0 0 0 0 0 0 0 0 0 0 0 530 371 662 981 1471 1810 2040 2128 2118 2080 2084 2019 1730 1886 1784 1758 1641 1353 1584 1462 1400 1430 1545 1373 1249 1553 1353 1248 1005 759 557 118 31 0
0 0 0 0 0 0 0 0 0 0 0 0 0 0 1 540 486 349 265 623 1196 1653 1805 1975 2104 2006 1875 1834 1860 1661 1507 1776 1427 1272 1303 1237 1306 1555 1431 1450 1256 1305 1110 1207 794 377 36 0 0
0 0 0 0 0 0 0 0 0 0 0 0 0 0 0 101 459 304 70 50 168 434 1224 1779 1762 1776 1728 1747 1684 1433 1204 1149 1170 1011 911 960 778 1147 1191 1289 860 1134 1026 927 591 137 0 0 0
0 0 0 0 0 0 0 0 0 0 0 0 0 0 0 0 24 5 0 0 18 97 503 1031 1246 1457 1561 1440 731 577 393 709 756 618 579 599 541 561 310 276 253 526 756 683 190 6 0 0 0
0 0 0 0 0 0 0 0 0 0 0 0 0 0 0 0 0 0 0 0 0 39 117 362 727 1031 1135 1140 329 325 483 287 230 233 345 216 288 257 291 181 208 370 435 271 20 0 0 0 0
0 0 0 0 0 0 0 0 0 0 0 0 0 0 0 0 0 0 0 0 0 0 0 0 159 536 904 822 240 235 316 321 249 196 112 61 152 246 312 325 334 507 389 237 7 0 0 0 0
0 0 0 0 0 0 0 0 0 0 0 0 0 0 0 0 0 0 0 0 0 0 0 0 0 43 378 428 216 112 155 277 224 253 136 79 46 126 174 166 160 211 109 199 41 0 0 0 0
0 0 0 0 0 0 0 0 0 0 0 0 0 0 0 0 0 0 0 0 0 0 0 0 0 0 28 262 152 64 50 117 215 268 177 252 268 33 14 140 231 174 68 124 14 6 2 0 0
0 0 0 0 0 0 0 0 0 0 0 0 0 0 0 0 0 0 0 0 0 0 0 0 0 0 0 11 104 26 20 24 54 188 324 355 402 197 13 86 206 108 121 16 20 6 6 2 2
0 0 0 0 0 0 0 0 0 0 0 0 0 0 0 0 0 0 0 0 0 0 0 0 0 0 0 0 3 6 2 1 1 140 364 560 358 292 195 121 207 302 65 71 9 6 3 5 2
0 0 0 0 0 0 0 0 0 0 0 0 0 0 0 0 0 0 0 0 0 0 0 0 0 0 0 0 0 0 5 4 12 40 120 482 266 310 254 250 194 74 165 8 17 5 8 6 3
0 0 0 0 0 0 0 0 0 0 0 0 0 0 0 0 0 0 0 0 0 0 0 0 0 0 0 0 0 0 0 0 8 3 42 209 305 219 271 266 247 101 94 26 10 6 7 5 8
0 0 0 0 0 0 0 0 0 0 0 0 0 0 0 0 0 0 0 0 0 0 0 0 0 0 0 0 0 0 0 0 2 22 61 62 66 103 164 55 4 17 143 78 13 16 9 11 2
0 0 0 0 0 0 0 0 0 0 0 0 0 0 0 0 0 0 0 0 0 0 0 0 0 0 0 0 0 0 0 0 1 2 1 2 6 27 115 73 83 192 137 66 6 7 2 0 0
0 0 0 0 0 0 0 0 0 0 0 0 0 0 0 0 0 0 0 1 1 1 1 0 0 1 0 0 0 0 0 2 1 3 1 3 4 68 57 90 134 198 177 145 66 5 3 2 2
0 0 0 0 0 0 0 0 0 0 0 0 0 0 0 0 0 0 0 1 0 0 4 0 0 4 4 2 3 0 2 1 3 3 1 1 2 2 46 61 54 300 231 130 109 51 4 1 1
0 0 5 11 0 0 0 0 0 0 0 0 0 0 0 1 1 0 2 0 0 1 5 0 0 6 3 3 4 1 0 2 5 4 0 3 10 7 1 1 12 58 108 104 64 2 3 2 2
0 0 0 0 0 0 0 0 0 0 0 0 0 0 0 2 0 2 1 0 0 0 2 2 2 7 7 3 2 4 0 1 2 2 0 1 0 0 0 2 1 1 97 33 34 2 2 3 4
0 0 0 0 8 2 0 0 0 0 0 0 0 0 1 1 2 2 1 0 0 0 3 3 4 2 4 3 2 3 3 3 2 3 1 2 1 5 0 3 5 11 1 15 6 2 1 0 0
0 0 0 0 0 8 0 0 0 0 0 0 0 0 0 2 0 2 1 0 0 0 1 4 2 4 3 1 1 3 2 2 1 2 2 2 3 3 2 1 3 7 0 1 1 1 1 1 1
0 0 0 0 0 0 0 0 0 0 0 0 0 0 0 0 0 1 1 2 1 1 0 1 1 2 2 1 1 2 2 1 2 4 2 3 3 0 0 1 2 3 0 0 0 0 2 0 1

GFSSGP_con_sbcape_165.txt.gz
CAPE
1 0 0 0 0 0 0 0 0 0 0 0 0 3 81 550 885 1051 1326 477 484 613 686 670 2309 1838 1292 1166 788 548 907 993 1152 861 1155 1340 1321 1356 1283 1147 1029 877 1146 1174 1060 786 460 396 339
0 0 0 0 0 0 0 0 0 0 0 0 20 80 25 456 833 856 904 1156 519 600 696 44 2349 2531 1815 1777 1109 763 477 706 808 811 960 1209 1438 1263 1207 1118 1123 1094 1171 1142 870 647 523 408 322
0 0 0 0 0 0 0 0 0 0 0 45 35 90 14 494 611 871 1459 1318 606 448 548 482 2333 2673 2273 1957 1460 1073 627 656 949 970 680 1207 1439 1371 1253 1160 1202 1186 1290 1101 904 728 531 368 318
0 0 0 0 0 0 0 0 0 0 15 0 37 4 238 1156 1021 1173 1401 1307 1244 647 573 1389 2489 2331 2381 2237 1727 1297 811 748 1325 876 1242 1044 1495 1439 1320 1295 1333 1314 1238 1175 985 802 606 357 275
0 0 0 0 0 0 0 0 0 0 10 3 0 83 378 1099 1335 1254 1367 1451 1452 1371 1007 1354 2870 2642 2392 2405 2088 1618 1143 624 1654 747 1231 1271 1478 1527 1458 1444 1353 1394 1376 1277 1085 756 604 427 355
0 0 0 0 0 0 0 0 0 0 0 0 6 1 234 1304 1283 1184 1257 1375 1408 1356 1335 1341 2795 2909 2821 2456 2090 1920 1526 882 1500 1063 1395 1562 1589 1696 1516 1488 1364 1521 1507 1352 1115 748 477 285 148
0 0 0 0 0 0 0 0 0 0 0 0 2 2 235 723 1422 1114 1217 1269 1398 1453 1436 1455 1647 2217 2752 2828 2368 1959 1817 1239 972 1255 1719 1509 1702 1747 1507 1394 1396 1599 1540 1412 1208 832 533 240 80
0 0 0 0 0 0 0 0 0 0 0 0 0 0 1 165 1362 1211 1259 1299 1470 1565 1528 1531 1397 1645 1637 1502 2261 2142 2003 1490 1226 1347 1765 1883 1790 1670 1652 1569 1531 1543 1551 1383 1279 835 580 225 33
0 0 0 0 0 0 0 0 0 0 0 0 0 0 0 288 1423 1467 1436 1407 1668 1680 1613 1670 1933 1911 1830 1904 1917 1795 1957 2044 1935 1825 1850 1593 1084 1424 1441 1302 1562 1483 1519 1395 1206 831 465 108 1
0 0 0 0 0 0 0 0 0 0 0 0 0 0 0 293 589 596 1096 1088 1654 1644 1511 1192 1483 1729 1779 1690 2012 1733 1658 1169 1403 1051 758 461 570 1020 952 1213 1493 1539 1372 1221 1080 876 431 208 0
0 0 0 0 0 0 0 0 0 0 0 0 0 0 0 12 53 85 155 327 815 1161 1466 1223 1737 1958 1778 1937 2122 2156 2370 1997 1527 1369 1392 1164 893 1084 820 1237 1001 1019 1190 1288 903 715 234 60 14
0 0 0 0 0 0 0 0 0 0 0 0 0 0 0 0 0 27 22 46 85 97 1173 1366 1685 1773 1746 1758 1578 1622 1855 1777 1834 1657 1563 1619 1326 1060 963 905 626 1662 1004 929 1047 807 591 134 17
0 0 0 0 0 0 0 0 0 0 0 0 0 0 0 0 0 0 0 0 0 4 247 887 1409 1328 1209 1461 1013 940 799 1115 1034 1378 1425 1665 1783 1391 1172 1193 996 1124 1123 1199 1183 883 715 168 0
0 0 0 0 0 0 0 0 0 0 0 0 0 0 0 0 0 0 0 0 0 0 25 226 751 1075 725 621 550 471 422 410 597 546 819 1162 1136 910 689 1080 1040 1183 1500 1231 1294 1271 454 57 0
0 0 0 0 0 0 0 0 0 0 0 0 0 0 0 0 0 0 0 0 0 0 0 18 184 702 1046 630 588 1289 1091 1121 550 602 538 457 389 667 665 260 503 832 1018 818 1095 661 353 29 0
0 0 0 0 0 0 0 0 0 0 0 0 0 0 0 0 0 0 0 0 0 0 0 29 121 427 913 482 680 847 778 900 950 942 830 775 681 738 454 397 439 574 592 677 723 455 337 108 16
0 0 0 0 0 0 0 0 0 0 0 0 0 0 0 0 0 0 0 0 0 0 0 9 129 210 290 272 1021 803 589 558 388 177 410 344 489 378 210 452 366 335 306 583 530 402 240 198 25
0 0 0 0 0 0 0 0 0 0 0 0 0 0 0 0 0 0 0 0 0 0 0 0 1 0 36 276 615 498 413 373 258 148 100 184 176 138 121 182 305 330 322 177 166 150 64 47 12
0 0 0 0 0 0 0 0 0 0 0 0 0 0 0 0 0 0 0 0 0 0 0 0 0 0 0 0 38 329 122 53 150 74 59 169 140 147 144 93 160 202 256 131 215 90 15 9 9
0 0 0 0 0 0 0 0 0 0 0 0 0 0 0 0 0 0 0 0 0 0 0 0 0 0 0 0 0 0 0 14 42 32 40 143 111 130 132 93 118 275 277 234 152 23 4 4 10
0 0 0 0 0 0 0 0 0 0 0 0 0 0 0 0 0 0 0 0 0 0 0 0 0 0 0 0 0 0 0 0 4 9 10 136 86 171 130 155 143 226 297 253 114 74 2 4 7
0 0 0 0 0 0 0 0 0 0 0 0 0 0 0 0 0 0 0 0 0 0 0 0 0 0 0 0 0 0 0 1 10 19 18 90 56 78 130 87 127 202 170 199 51 70 58 12 11
0 0 0 0 0 0 0 0 0 0 0 0 0 0 0 0 0 0 0 0 0 0 0 0 0 0 0 0 0 0 0 1 11 23 42 55 72 89 100 42 94 70 262 201 222 196 85 17 9
0 0 0 0 0 0 0 0 0 0 0 0 0 0 0 0 0 0 0 0 0 0 0 0 0 0 0 0 0 0 2 5 6 24 36 55 12 24 6 92 146 105 135 117 133 224 98 38 22
2 7 67 101 128 31 21 9 0 0 0 0 0 0 0 0 0 0 0 2 12 13 6 3 1 2 1 0 1 2 4 7 21 32 11 3 9 22 36 71 104 69 62 89 97 118 116 36 25
97 120 251 311 136 287 30 0 5 0 0 0 0 0 0 0 0 0 3 17 17 16 6 3 1 4 4 3 4 3 0 2 3 3 1 0 53 74 108 144 130 98 91 142 168 259 162 71 20
70 196 150 266 173 279 90 65 27 0 0 0 0 0 0 0 0 3 10 18 16 5 0 2 4 1 3 5 7 1 1 0 1 6 4 8 73 5 21 115 143 142 194 321 291 72 29 71 16
2 140 298 372 283 177 75 105 44 12 0 0 0 0 0 2 1 9 15 17 12 9 2 3 9 12 9 4 3 6 4 5 5 5 5 3 1 1 3 45 136 121 179 299 301 102 47 20 7
1 147 202 317 260 162 120 95 135 84 0 8 0 0 4 0 6 15 14 11 9 3 5 5 5 8 18 17 5 0 1 2 2 0 1 2 4 1 1 3 16 107 152 233 323 151 17 14 6
6 10 4 19 266 222 285 180 91 116 55 13 0 0 9 7 12 13 10 7 4 5 11 24 22 17 19 8 1 1 1 4 2 2 2 0 1 1 0 0 4 18 28 162 217 6 1 0 0